Abilene, TX

5:23 PM CST on November 22, 2017 (GMT -0600)
Abilene Regional

Weather History for KABI - January, 2014

Change the Weather History Date:

Thursday, January 30, 2014

  Actual Average Record
Temperature  
Mean Temperature 52 °F 46 °F  
Max Temperature 69 °F 58 °F 82 °F (1967)
Min Temperature 35 °F 34 °F 5 °F (1895)
Degree Days  
Heating Degree Days 13 19  
Month to date heating degree days 620 605  
Since 1 July heating degree days 1790 1650  
Cooling Degree Days 0 0  
Month to date cooling degree days 0 0  
Year to date cooling degree days 0 0  
Growing Degree Days 2 (Base 50)    
Moisture  
Dew Point 23 °F    
Average Humidity 34    
Maximum Humidity 48    
Minimum Humidity 20    
Precipitation  
Precipitation 0.00 in 0.04 in 0.92 in (1964)
Month to date precipitation T 0.98  
Year to date precipitation T 0.98  
Sea Level Pressure  
Sea Level Pressure 29.81 in    
Wind  
Wind Speed 23 mph (SSW)    
Max Wind Speed 37 mph    
Max Gust Speed 49 mph    
Visibility 10 miles    
Events      
T = Trace of Precipitation, MM = Missing Value Source: NWS Daily Summary

Daily Weather History Graph

Daily Weather History Graph

Search for Another Location

Airport or City:

Trip Planner

Search our weather history database for the weather conditions in past years. The results will help you decide how hot, cold, wet, or windy it might be!

Date:

Astronomy

Jan. 30, 2014 Rise Set
Actual Time 7:34 AM CST 6:10 PM CST
Civil Twilight 7:08 AM CST 6:36 PM CST
Nautical Twilight 6:38 AM CST 7:05 PM CST
Astronomical Twilight 6:09 AM CST 7:34 PM CST
Moon 7:03 AM CST (1/30) 6:20 PM CST (1/30)
Length of Visible Light 11h 27m
Length of Day
10h 36m
Waning Crescent, 0% of the Moon is Illuminated
Jan 30
Waning Crescent
Jan 30
New
Feb 6
First Quarter
Feb 14
Full
Feb 22
Last Quarter

Hourly Weather History & Observations

Time (CST) Temp. Windchill Dew Point Humidity Pressure Visibility Wind Dir Wind Speed Gust Speed Precip Events Conditions
12:52 AM 37.0 °F 26.4 °F 9.0 °F 31% 30.00 in 10.0 mi South 20.7 mph 29.9 mph N/A   Clear
1:52 AM 36.0 °F 25.6 °F 9.0 °F 33% 29.96 in 10.0 mi South 18.4 mph 29.9 mph N/A   Clear
2:52 AM 36.0 °F 25.6 °F 10.0 °F 34% 29.94 in 10.0 mi South 18.4 mph 29.9 mph N/A   Clear
3:52 AM 35.1 °F 23.0 °F 12.0 °F 39% 29.91 in 10.0 mi South 24.2 mph 33.4 mph N/A   Clear
4:52 AM 35.1 °F 23.0 °F 12.9 °F 40% 29.89 in 10.0 mi South 24.2 mph 34.5 mph N/A   Clear
5:52 AM 35.1 °F 24.5 °F 14.0 °F 42% 29.88 in 10.0 mi South 18.4 mph 29.9 mph N/A   Clear
6:52 AM 36.0 °F 23.5 °F 14.0 °F 41% 29.86 in 10.0 mi South 27.6 mph 44.9 mph N/A   Clear
7:52 AM 37.0 °F 23.7 °F 17.1 °F 44% 29.84 in 9.0 mi SSW 34.5 mph 46.0 mph N/A   Clear
8:52 AM 37.9 °F 25.1 °F 19.9 °F 48% 29.86 in 5.0 mi South 33.4 mph 43.7 mph N/A   Haze
9:12 AM 39.0 °F 27.6 °F 21.0 °F 49% 29.85 in 10.0 mi SSW 27.6 mph 44.9 mph N/A   Partly Cloudy
9:52 AM 43.0 °F 33.1 °F 21.9 °F 43% 29.86 in 10.0 mi SSW 26.5 mph 40.3 mph N/A   Clear
9:59 AM 44.1 °F 34.0 °F 23.0 °F 43% 29.85 in 5.0 mi SSW 29.9 mph 41.4 mph N/A   Partly Cloudy
10:52 AM 48.9 °F - 25.0 °F 39% 29.84 in 10.0 mi SSW 31.1 mph 42.6 mph N/A   Clear
11:52 AM 52.0 °F - 27.0 °F 38% 29.82 in 10.0 mi SSW 28.8 mph 41.4 mph N/A   Clear
12:52 PM 57.9 °F - 28.0 °F 32% 29.79 in 10.0 mi South 20.7 mph 32.2 mph N/A   Clear
1:52 PM 63.0 °F - 28.0 °F 27% 29.79 in 10.0 mi SSW 19.6 mph 28.8 mph N/A   Clear
2:52 PM 66.0 °F - 28.0 °F 24% 29.73 in 10.0 mi SSW 24.2 mph 31.1 mph N/A   Clear
3:52 PM 69.1 °F - 27.0 °F 21% 29.70 in 10.0 mi SSW 19.6 mph 27.6 mph N/A   Clear
4:52 PM 68.0 °F - 28.0 °F 22% 29.71 in 10.0 mi SSW 19.6 mph 27.6 mph N/A   Clear
5:52 PM 63.0 °F - 28.9 °F 28% 29.74 in 10.0 mi South 13.8 mph - N/A   Clear
6:52 PM 60.1 °F - 30.0 °F 32% 29.74 in 10.0 mi South 12.7 mph - N/A   Clear
7:52 PM 60.1 °F - 30.9 °F 33% 29.74 in 10.0 mi South 17.3 mph 24.2 mph N/A   Clear
8:52 PM 60.1 °F - 30.9 °F 33% 29.75 in 10.0 mi SSW 18.4 mph 31.1 mph N/A   Clear
9:52 PM 57.0 °F - 32.0 °F 39% 29.74 in 10.0 mi SSW 26.5 mph 32.2 mph N/A   Clear
10:52 PM 55.0 °F - 34.0 °F 45% 29.74 in 10.0 mi SSW 24.2 mph 31.1 mph N/A   Clear
11:52 PM 54.0 °F - 36.0 °F 51% 29.74 in 10.0 mi SSW 21.9 mph 33.4 mph N/A   Clear